TimeEET,TemperatureF,Dew PointF,Humidity,Sea Level PressureIn,VisibilityMPH,Wind Direction,Wind SpeedMPH,Gust SpeedMPH,PrecipitationIn,Events,Conditions,WindDirDegrees,DateUTC
12:50 AM,19.4,15.8,86,29.98,-9999.0,Calm,Calm,-,N/A,,Clear,0,2013-01-04 22:50:00
1:50 AM,17.6,17.6,100,29.98,-9999.0,Calm,Calm,-,N/A,,Clear,0,2013-01-04 23:50:00
2:00 AM,18,16,90,,6,Calm,Calm,,,,,,2013-01-05 00:00:00
2:50 AM,19.4,17.6,93,29.95,-9999.0,NE,3.5,-,N/A,,Clear,40,2013-01-05 00:50:00
3:50 AM,17.6,15.8,93,29.92,-9999.0,Calm,Calm,-,N/A,,Clear,0,2013-01-05 01:50:00
4:50 AM,17.6,15.8,93,29.92,6.2,SW,3.5,-,N/A,,Scattered Clouds,230,2013-01-05 02:50:00
5:50 AM,21.2,17.6,86,29.89,6.2,Calm,Calm,-,N/A,,Scattered Clouds,0,2013-01-05 03:50:00
6:50 AM,21.2,19.4,93,29.89,6.2,East,2.3,-,N/A,,Mostly Cloudy,80,2013-01-05 04:50:00
8:00 AM,22,20,90,,6,Calm,Calm,,,,Partly Cloudy,,2013-01-05 06:00:00
8:50 AM,24.8,19.4,80,29.86,6.2,SW,2.3,-,N/A,,Mostly Cloudy,230,2013-01-05 06:50:00
9:50 AM,28.4,21.2,74,29.86,6.2,Calm,Calm,-,N/A,,Mostly Cloudy,0,2013-01-05 07:50:00
10:50 AM,32.0,21.2,64,29.83,6.2,Calm,Calm,-,N/A,,Mostly Cloudy,0,2013-01-05 08:50:00
11:50 AM,35.6,23.0,60,29.77,6.2,Variable,1.2,-,N/A,,Mostly Cloudy,0,2013-01-05 09:50:00
12:50 PM,35.6,21.2,56,29.74,6.2,West,3.5,-,N/A,,Mostly Cloudy,270,2013-01-05 10:50:00
1:50 PM,37.4,21.2,52,29.74,6.2,West,3.5,-,N/A,,Mostly Cloudy,260,2013-01-05 11:50:00
2:00 PM,37,21,40,,6,West,3.5,,,,Partly Cloudy,260,2013-01-05 12:00:00
2:50 PM,35.6,26.6,70,29.74,6.2,NW,5.8,-,N/A,,Mostly Cloudy,320,2013-01-05 12:50:00
3:50 PM,35.6,26.6,70,29.74,6.2,South,3.5,-,N/A,,Mostly Cloudy,170,2013-01-05 13:50:00
4:50 PM,32.0,28.4,87,29.74,6.2,Variable,1.2,-,N/A,,Mostly Cloudy,0,2013-01-05 14:50:00
5:50 PM,30.2,26.6,86,29.74,6.2,North,4.6,-,N/A,,Mostly Cloudy,360,2013-01-05 15:50:00
6:50 PM,32.0,26.6,80,29.74,6.2,NW,4.6,-,N/A,,Mostly Cloudy,320,2013-01-05 16:50:00
7:50 PM,32.0,26.6,80,29.74,6.2,NW,3.5,-,N/A,,Mostly Cloudy,310,2013-01-05 17:50:00
8:00 PM,31,26,75,,6,NW,3.5,,,,Partly Cloudy,310,2013-01-05 18:00:00
8:50 PM,32.0,28.4,87,29.74,6.2,West,4.6,-,N/A,,Mostly Cloudy,280,2013-01-05 18:50:00
9:50 PM,30.2,28.4,93,29.74,6.2,NW,6.9,-,N/A,Snow,Light Snow,310,2013-01-05 19:50:00
10:50 PM,30.2,28.4,93,29.74,6.2,NNW,3.5,-,N/A,Snow,Light Snow,330,2013-01-05 20:50:00
11:50 PM,30.2,30.2,100,29.74,6.2,Variable,1.2,-,N/A,Snow,Light Snow,0,2013-01-05 21:50:00